sat.trackr.live / text

‹ back to catalog

ONEWEB-0312

NORAD 49098 · 2021-075Z

PAYLOAD ACTIVE UNKNOWN

§ Identity

Operator
Country
UK
Launch date
2021-08-21
Launch site
TYMSC
Launch vehicle
Mass (kg)
RCS (m²)

Purposes: comms

External: N2YO · Heavens-Above · Gunter

§ Orbital elements

Epoch: 2026-05-25T02:27:19.567584Z

Period
109.29 min
Inclination
87.9153°
Eccentricity
0.0001856
Mean motion
13.17649549 rev/d
Perigee alt
1,192.3 km
Apogee alt
1,195.1 km
Semi-major
7,571.8 km
B*
7.1147e-5
RAAN
10.4646°
Arg perigee
94.7830°
Mean anomaly
265.3513°
Rev number
23,056

§ Raw data

ONEWEB-03121 49098U 21075Z   26145.10230981  .00000041  00000+0  71147-4 0  99952 49098  87.9153  10.4646 0001856  94.7830 265.3513 13.17649549230567

JSON: /api/v1/satellites/49098 · /tle

For live sub-satellite position, see the globe view (requires WebGL).

§ Visibility from observer

Set your observer location to see the next 7 days of passes ≥ 10°. The values pass through the URL so the page stays shareable.

No JS? Fill the form by hand. The geolocation button needs JavaScript.